Regional Weather Roundup
Issued by NWS State College, PA

Home | Current Version | Previous Version | Graphics & Text | Print | Product List | Glossary On
Versions: 1 2 3 4 5 6 7 8 9 10 11 12 13 14 15 16 17 18 19 20 21 22 23 24 25 26 27 28 29 30 31 32 33 34 35 36 37 38 39 40 41 42 43 44 45 46 47 48 49 50
000
ASUS41 KCTP 262210
RWRCTP

REGIONAL WEATHER ROUNDUP
NATIONAL WEATHER SERVICE STATE COLLEGE PA
500 PM EST WED NOV 26 2014

Note: "fair" indicates few or no clouds below 12,000 feet with no
significant weather and/or obstructions to visibility.

* = STATION THAT DOES NOT REPORT PRECIPITATION /E.G. RAIN...SNOW...ETC/
    THUNDER OR FOG.

PAZ002>004-007>009-013>016-020>023-029>032-262300-
WESTERN PENNSYLVANIA

CITY           SKY/WX    TMP DP  RH WIND       PRES   REMARKS
ERIE           CLOUDY    35  27  72 E7        30.04S
MEADVILLE      CLOUDY    33  28  81 NE3       30.00S
FRANKLIN*      CLOUDY    30  28  93 CALM      30.01S
NEW CASTLE       N/A     33  29  86 CALM      30.03S
BEAVER COUNTY  CLOUDY    32  32 100 CALM      30.00F FOG
BUTLER*        CLOUDY    32  30  93 CALM      30.03R
PITTSBURGH INT LGT SNOW  33  31  92 N5        30.00S FOG
PITTSBURGH     CLOUDY    32  29  88 NW3       30.00R FOG
INDIANA*       CLOUDY    32  32 100 CALM      30.01F FOG
LATROBE        LGT SNOW  32  32 100 CALM      30.01S
WASHINGTON CO* CLOUDY    34  30  86 CALM      30.01S
$$

PAZ004>006-010>012-017>019-024>028-033>037-041-042-045-046-049>053-262300-
CENTRAL PENNSYLVANIA

CITY           SKY/WX    TMP DP  RH WIND       PRES   REMARKS
BRADFORD       LGT SNOW  29  25  85 N5        29.96F VSB 1
DUBOIS         LGT SNOW  31  29  92 N5        29.96S VSB 1
CLEARFIELD     LGT SNOW  31  30  96 NE3       29.97F FOG
JOHNSTOWN      LGT SNOW  30  28  92 CALM      29.92S FOG
ALTOONA        LGT SNOW  32  31  96 CALM      29.96S FOG
STATE COLLEGE  LGT SNOW  32  30  93 NE6       29.98S VSB 3/4
WILLIAMSPORT   LGT SNOW  33  30  88 W7        29.99S FOG
SELINSGROVE    LGT SNOW  33  31  92 N6        29.98S FOG
FT INDIANTOWN  MIX PCPN  36  32  87 N10G20    29.92R
CAPITAL CITY   FLURRIES  34  32  92 W8        29.95S
HARRISBURG     LGT SNOW  34  32  92 NW16      29.94S FOG
YORK           LGT SNOW  33  32  96 W8        29.95R FOG
$$

PAZ038>040-043-044-047-048-054-055-060>062-067>071-262300-
EASTERN PENNSYLVANIA

CITY           SKY/WX    TMP DP  RH WIND       PRES   REMARKS
SCRANTON       LGT SNOW  33  30  88 W8        29.91F VSB 1
MOUNT POCONO   LGT SNOW  30  27  88 N13       29.81F VSB 1
ALLENTOWN      LGT SNOW  34  30  86 N6        29.87R FOG
QUAKERTOWN*    CLOUDY    32  32 100 N9        29.86R
READING        LGT SNOW  35  31  85 NW12      29.90R FOG
LANCASTER      LGT SNOW  34  31  88 NW12      29.92R FOG
COATESVILLE    LGT SNOW  32  32 100 NW12      29.87R
POTTSTOWN      LGT SNOW  33  32  96 NW10      29.88R FOG
BLUE BELL      CLOUDY    36  34  93 N5        29.83R
DOYLESTOWN     FLURRIES  32  32 100 N13G18    29.82S
WILLOW GROVE   NOT AVBL
NORTH PHILA    MIX PCPN  36  31  82 N13       29.83R
PHILADELPHIA   LGT SNOW  36  33  89 N14       29.84R FOG
$$



USA.gov is the U.S. government's official web portal to all federal, state and local government web resources and services.